Volver al catálogo

DELTA 1 DEB

ActivoPO
NORAD 21680·DEBRIS·🇺🇸 United States

Lanzado Jun 12, 1975 desde Vandenberg Space Force Base

Loading…

Próximos Pases (próximas 24 horas)

TLE

ActualizadoSource: Space-Track

Época: Sep 14, 2026, 07:12 UTC

1 21680U 75052JG  26257.30063551 -.00000105  00000-0 -26275-3 0  9994
2 21680  99.6078  16.5192 0381556 107.2991 284.9956 12.72782045634441

Sigue DELTA 1 DEB en tiempo real con AllMySat

Download on the App Store